Torna al catalogo

COSMOS 249 DEB *

AttivoLEO
NORAD 3679·DEBRIS·🇷🇺 Russia

Lanciato Oct 20, 1968 da Baikonur Cosmodrome

Loading…

Prossimi Passaggi (prossime 24 ore)

TLE

AggiornatoSource: Space-Track

Epoca: Sep 14, 2026, 12:26 UTC

1 03679U 68091AE  26257.51820564  .00001236  00000-0  35049-3 0  9998
2 03679  62.7504  74.8446 0468781 260.2909  94.4909 14.00760604796944

Traccia COSMOS 249 DEB * in tempo reale con AllMySat

Download on the App Store